Home > Weather > Osijek > Past weeks

Flag for Croatia Weather for the Past 2 Weeks in Osijek, Croatia

Now
59 °F

Thunderstorms. Broken clouds.


Feels Like: 57 °F
Forecast: 49 / 70 °F
Wind: 12 mph from Northeast

Location: Osijek / Cepin

Current Time: May 4, 2016 at 5:57:30 PM

Latest Report: May 4, 2016 at 5:00 PM


Visibility: 4 mi

Pressure: 30.01 "Hg

Humidity: 77%

Dew Point: 52 °F

Location of OsijekLocation

Historic Weather in Osijek — Graph

°F

Osijek Temperature Yesterday

Maximum temperature yesterday: 61 °F (at 1:00 PM)
Minimum temperature yesterday: 52 °F (at 4:30 AM)
Average temperature yesterday: 54 °F

High & Low Weather Summary for the Past Weeks

 TemperatureHumidityPressure
High73 °F (Apr 23, 4:00 PM)100% (Apr 26, 5:00 AM)30.36 "Hg (Apr 26, 5:00 AM)
Low32 °F (Apr 26, 3:30 AM)34% (Apr 21, 2:00 PM)29.50 "Hg (Apr 24, 5:30 AM)
Average52 °F77%29.94 "Hg
* Reported Apr 19 4:00 PM — May 4 4:30 PM, Osijek, Weather by CustomWeather, © 2016

Note: Actual official high and low records may vary slightly from our data, if they occured in-between our weather recording intervals... More about our weather records

Advertising

Osijek Weather History for the Previous 24 Hours

Scroll right to see more
 ConditionsComfort  
Time TempWeatherWind HumidityBarometerVisibility
4:30 PM
Wed, May 4
64 °FThundershowers. Partly sunny.20 mph64%29.95 "HgN/A
4:00 PM64 °FPartly sunny.21 mph64%29.95 "HgN/A
3:30 PM63 °FScattered clouds.20 mph64%29.95 "HgN/A
3:00 PM63 °FScattered clouds.16 mph64%29.98 "HgN/A
2:30 PM61 °FPassing clouds.13 mph63%29.98 "HgN/A
2:00 PM61 °FPassing clouds.16 mph63%29.98 "HgN/A
1:00 PM59 °FPassing clouds.17 mph77%29.98 "HgN/A
12:30 PM57 °FPassing clouds.16 mph82%29.98 "HgN/A
12:00 PM57 °FScattered clouds.15 mph82%29.98 "HgN/A
11:30 AM55 °FScattered clouds.16 mph88%29.98 "HgN/A
11:00 AM55 °FLight rain. Passing clouds.12 mph88%29.98 "HgN/A
10:00 AM55 °FLight rain. Scattered clouds.12 mph88%29.98 "Hg4 mi
9:30 AM54 °FLight rain. Scattered clouds.13 mph94%29.95 "Hg4 mi
9:00 AM54 °FScattered clouds.12 mph94%29.95 "Hg4 mi
8:30 AM52 °FScattered clouds.13 mph100%29.95 "Hg4 mi
8:00 AM52 °FFog.13 mph100%29.92 "Hg2 mi
7:00 AM52 °FFog.12 mph94%29.89 "Hg2 mi
6:30 AM52 °FFog.10 mph94%29.89 "Hg2 mi
6:00 AM50 °FFog.9 mph100%29.89 "Hg2 mi
5:30 AM50 °FFog.8 mph100%29.89 "Hg3 mi
5:00 AM52 °FClear.7 mph94%29.86 "Hg4 mi
4:30 AM52 °FClear.8 mph94%29.86 "Hg10 mi
4:00 AM52 °FClear.7 mph94%29.86 "Hg10 mi
3:30 AM52 °FPassing clouds.8 mph94%29.86 "HgN/A
3:00 AM52 °FPartly cloudy.8 mph94%29.86 "HgN/A
2:30 AM52 °FPartly cloudy.8 mph94%29.86 "HgN/A
2:00 AM52 °FPartly cloudy.8 mph94%29.86 "HgN/A
1:30 AM52 °FPartly cloudy.7 mph94%29.86 "HgN/A
1:00 AM52 °FPartly cloudy.9 mph94%29.86 "HgN/A
12:30 AM52 °FLight rain. Partly cloudy.10 mph94%29.86 "Hg4 mi
12:00 AM52 °FPartly cloudy.9 mph94%29.86 "HgN/A
11:30 PM
Tue, May 3
52 °FPartly cloudy.8 mph94%29.86 "HgN/A
11:00 PM52 °FPartly cloudy.9 mph100%29.86 "HgN/A
10:30 PM54 °FPassing clouds.8 mph94%29.86 "HgN/A
10:00 PM54 °FPassing clouds.7 mph94%29.86 "HgN/A
9:30 PM54 °FPassing clouds.6 mph94%29.86 "HgN/A
9:00 PM54 °FPassing clouds.3 mph88%29.86 "HgN/A
8:30 PM54 °FLight rain. Broken clouds.5 mph94%29.86 "Hg4 mi
8:00 PM54 °FLight rain. Broken clouds.9 mph94%29.83 "Hg4 mi
7:30 PM54 °FLight rain. Scattered clouds.9 mph94%29.83 "Hg4 mi
7:00 PM54 °FLight rain. Scattered clouds.12 mph94%29.83 "Hg4 mi
6:30 PM54 °FLight rain. Partly sunny.9 mph94%29.83 "Hg4 mi
6:00 PM54 °FLight rain. Partly sunny.6 mph94%29.83 "Hg4 mi
5:30 PM54 °FRain. Partly sunny.8 mph94%29.83 "Hg4 mi
5:00 PM54 °FRain. Broken clouds.12 mph94%29.83 "Hg3 mi
Weather by CustomWeather, © 2016

See weather overviewHow to use our weather pages